Location: ??????
(55.2000°N, 38.3000°E)
Time: 01:47:58
(UTC+00:00)

SL-16 R/B - Pass Details

Date: 15 November 2025
Orbit: 841 x 844 km, 71.0° (Epoch: 12 December)

Event Time Altitude Azimuth Distance (km) Brightness Sun altitude
Exits shadow 02:26:39 17° 334° (NNW) 2,000 3.9 -21.5°
Maximum altitude 02:27:34 18° 346° (NNW) 1,968 3.9 -21.3°
Drops below altitude 10° 02:31:24 10° 29° (NNE) 2,478 4.9 -20.8°
Sets 02:34:42 0° 48° (NE) 3,415 6.0 -20.3°
